Time,TemperatureF,DewpointF,PressureIn,WindDirection,WindDirectionDegrees,WindSpeedMPH,WindSpeedGustMPH,Humidity,HourlyPrecipIn,Conditions,Clouds,dailyrainin,SoftwareType,DateUTC
2013-03-08 02:00:00,10.8,7.1,30.40,NNE,23,0.0,0.0,85,0.00,,,0.00,WUHU216HW,2013-03-08 08:00:00,
2013-03-08 02:05:00,10.8,7.1,30.40,NNE,23,0.0,0.0,85,0.00,,,0.00,WUHU216HW,2013-03-08 08:05:00,
2013-03-08 03:00:00,10.3,6.6,30.38,NNE,23,0.0,0.0,85,0.00,,,0.00,WUHU216HW,2013-03-08 09:00:00,
2013-03-08 03:05:00,10.3,6.6,30.38,NNE,23,0.0,0.0,85,0.00,,,0.00,WUHU216HW,2013-03-08 09:05:00,
2013-03-08 04:00:00,8.5,4.6,30.39,NNE,23,0.0,0.0,84,0.00,,,0.00,WUHU216HW,2013-03-08 10:00:00,
2013-03-08 04:05:00,8.5,4.6,30.39,NNE,23,0.0,0.0,84,0.00,,,0.00,WUHU216HW,2013-03-08 10:05:00,
2013-03-08 05:00:00,9.2,5.9,30.39,NNE,23,0.7,0.7,86,0.00,,,0.00,WUHU216HW,2013-03-08 11:00:00,
2013-03-08 05:05:00,9.2,5.9,30.39,NNE,23,0.7,0.7,86,0.00,,,0.00,WUHU216HW,2013-03-08 11:05:00,
2013-03-08 06:00:00,8.1,4.5,30.39,NNE,23,0.0,0.0,85,0.00,,,0.00,WUHU216HW,2013-03-08 12:00:00,
2013-03-08 06:05:00,8.1,4.5,30.39,NNE,23,0.0,0.0,85,0.00,,,0.00,WUHU216HW,2013-03-08 12:05:00,
2013-03-08 07:00:00,9.5,6.1,30.40,NNE,23,0.0,0.0,86,0.00,,,0.00,WUHU216HW,2013-03-08 13:00:00,
2013-03-08 07:05:00,9.5,6.1,30.40,NNE,23,0.0,0.0,86,0.00,,,0.00,WUHU216HW,2013-03-08 13:05:00,
2013-03-08 08:00:00,16.4,13.1,30.40,North,0,0.0,0.0,87,0.00,,,0.00,WUHU216HW,2013-03-08 14:00:00,
2013-03-08 08:05:00,16.4,13.1,30.40,North,0,0.0,0.0,87,0.00,,,0.00,WUHU216HW,2013-03-08 14:05:00,
2013-03-08 11:00:00,38.9,28.0,30.39,South,180,2.7,2.7,65,0.00,,,0.00,WUHU216HW,2013-03-08 17:00:00,
2013-03-08 11:05:00,39.6,28.4,30.39,SSW,203,1.6,6.5,64,0.00,,,0.00,WUHU216HW,2013-03-08 17:05:00,
2013-03-08 11:10:00,40.1,28.5,30.39,South,180,2.7,7.8,63,0.00,,,0.00,WUHU216HW,2013-03-08 17:10:00,
2013-03-08 11:15:00,40.7,29.1,30.39,SSW,203,3.4,7.8,63,0.00,,,0.00,WUHU216HW,2013-03-08 17:15:00,
2013-03-08 11:20:00,40.5,28.4,30.39,SSW,203,4.0,7.4,62,0.00,,,0.00,WUHU216HW,2013-03-08 17:20:00,
2013-03-08 11:25:00,40.9,28.4,30.39,SSE,158,6.5,7.4,61,0.00,,,0.00,WUHU216HW,2013-03-08 17:25:00,
2013-03-08 11:30:00,40.7,27.9,30.39,South,180,4.0,9.2,60,0.00,,,0.00,WUHU216HW,2013-03-08 17:30:00,
2013-03-08 11:35:00,41.6,28.7,30.39,SW,225,3.8,9.2,60,0.00,,,0.00,WUHU216HW,2013-03-08 17:35:00,
2013-03-08 11:40:00,41.9,28.2,30.39,NW,315,1.1,6.7,58,0.00,,,0.00,WUHU216HW,2013-03-08 17:40:00,
2013-03-08 11:45:00,42.8,29.0,30.39,South,180,5.8,6.7,58,0.00,,,0.00,WUHU216HW,2013-03-08 17:45:00,
2013-03-08 11:50:00,42.1,27.5,30.38,South,180,4.9,8.5,56,0.00,,,0.00,WUHU216HW,2013-03-08 17:50:00,
2013-03-08 11:55:00,42.8,28.2,30.38,SW,225,4.7,10.5,56,0.00,,,0.00,WUHU216HW,2013-03-08 17:55:00,
2013-03-08 12:00:00,42.3,27.2,30.38,SSW,203,4.3,10.5,55,0.00,,,0.00,WUHU216HW,2013-03-08 18:00:00,
2013-03-08 12:05:00,42.3,27.2,30.38,SSW,203,3.4,7.2,55,0.00,,,0.00,WUHU216HW,2013-03-08 18:05:00,
2013-03-08 12:10:00,42.5,27.4,30.38,South,180,2.7,7.6,55,0.00,,,0.00,WUHU216HW,2013-03-08 18:10:00,
2013-03-08 12:15:00,42.1,27.0,30.38,SSW,203,6.3,8.3,55,0.00,,,0.00,WUHU216HW,2013-03-08 18:15:00,
2013-03-08 12:20:00,43.2,27.2,30.38,WSW,248,2.7,8.3,53,0.00,,,0.00,WUHU216HW,2013-03-08 18:20:00,
2013-03-08 12:25:00,42.1,27.0,30.37,WSW,248,6.0,6.9,55,0.00,,,0.00,WUHU216HW,2013-03-08 18:25:00,
2013-03-08 12:30:00,41.9,26.9,30.37,South,180,6.3,6.3,55,0.00,,,0.00,WUHU216HW,2013-03-08 18:30:00,
2013-03-08 12:35:00,43.6,28.0,30.37,South,180,4.5,6.3,54,0.00,,,0.00,WUHU216HW,2013-03-08 18:35:00,
2013-03-08 12:40:00,44.3,27.7,30.37,SSE,158,2.7,6.5,52,0.00,,,0.00,WUHU216HW,2013-03-08 18:40:00,
2013-03-08 12:45:00,43.6,27.1,30.37,SSW,203,5.1,6.5,52,0.00,,,0.00,WUHU216HW,2013-03-08 18:45:00,
2013-03-08 12:50:00,45.0,28.9,30.36,SSW,203,4.3,7.2,53,0.00,,,0.00,WUHU216HW,2013-03-08 18:50:00,
2013-03-08 12:55:00,44.3,27.3,30.36,WSW,248,3.4,7.2,51,0.00,,,0.00,WUHU216HW,2013-03-08 18:55:00,
2013-03-08 13:00:00,44.5,27.9,30.36,SSE,158,3.4,7.2,52,0.00,,,0.00,WUHU216HW,2013-03-08 19:00:00,
2013-03-08 13:05:00,45.7,29.1,30.36,SW,225,3.8,5.8,52,0.00,,,0.00,WUHU216HW,2013-03-08 19:05:00,
2013-03-08 13:10:00,45.7,27.6,30.36,SW,225,2.2,5.8,49,0.00,,,0.00,WUHU216HW,2013-03-08 19:10:00,
2013-03-08 13:15:00,46.4,28.8,30.35,SSE,158,6.3,9.2,50,0.00,,,0.00,WUHU216HW,2013-03-08 19:15:00,
2013-03-08 13:20:00,47.0,27.6,30.35,South,180,5.1,9.2,47,0.00,,,0.00,WUHU216HW,2013-03-08 19:20:00,
2013-03-08 13:25:00,47.2,27.8,30.35,South,180,5.4,8.7,47,0.00,,,0.00,WUHU216HW,2013-03-08 19:25:00,
2013-03-08 13:30:00,47.9,28.4,30.35,SSW,203,5.4,8.7,47,0.00,,,0.00,WUHU216HW,2013-03-08 19:30:00,
2013-03-08 13:35:00,48.8,27.7,30.34,SSW,203,3.8,8.7,44,0.00,,,0.00,WUHU216HW,2013-03-08 19:35:00,
2013-03-08 13:40:00,46.3,27.0,30.34,South,180,4.9,8.7,47,0.00,,,0.00,WUHU216HW,2013-03-08 19:40:00,
2013-03-08 13:45:00,47.7,29.4,30.34,South,180,4.9,6.5,49,0.00,,,0.00,WUHU216HW,2013-03-08 19:45:00,
2013-03-08 13:50:00,47.3,26.9,30.34,SSW,203,3.4,6.5,45,0.00,,,0.00,WUHU216HW,2013-03-08 19:50:00,
2013-03-08 13:55:00,46.8,27.6,30.33,SSE,158,3.4,5.8,47,0.00,,,0.00,WUHU216HW,2013-03-08 19:55:00,
2013-03-08 14:00:00,47.9,28.4,30.34,SSW,203,6.3,7.4,47,0.00,,,0.00,WUHU216HW,2013-03-08 20:00:00,
2013-03-08 14:05:00,48.6,27.6,30.34,SSW,203,5.1,7.4,44,0.00,,,0.00,WUHU216HW,2013-03-08 20:05:00,
2013-03-08 14:10:00,48.6,28.6,30.34,South,180,5.4,7.4,46,0.00,,,0.00,WUHU216HW,2013-03-08 20:10:00,
2013-03-08 14:15:00,49.1,28.6,30.33,SSW,203,8.1,8.5,45,0.00,,,0.00,WUHU216HW,2013-03-08 20:15:00,
2013-03-08 14:20:00,49.0,28.5,30.33,SE,135,4.5,8.5,45,0.00,,,0.00,WUHU216HW,2013-03-08 20:20:00,
2013-03-08 14:25:00,49.7,29.1,30.33,WSW,248,2.5,8.1,45,0.00,,,0.00,WUHU216HW,2013-03-08 20:25:00,
2013-03-08 14:30:00,50.2,28.4,30.33,South,180,5.1,7.8,43,0.00,,,0.00,WUHU216HW,2013-03-08 20:30:00,
2013-03-08 14:35:00,49.9,28.2,30.33,South,180,6.3,7.8,43,0.00,,,0.00,WUHU216HW,2013-03-08 20:35:00,
2013-03-08 14:40:00,49.5,27.8,30.33,SSE,158,6.0,6.3,43,0.00,,,0.00,WUHU216HW,2013-03-08 20:40:00,
2013-03-08 14:45:00,49.0,28.5,30.33,SSE,158,2.5,6.3,45,0.00,,,0.00,WUHU216HW,2013-03-08 20:45:00,
2013-03-08 14:50:00,49.3,28.7,30.33,SW,225,3.1,6.5,45,0.00,,,0.00,WUHU216HW,2013-03-08 20:50:00,
2013-03-08 14:55:00,49.3,27.1,30.33,WNW,293,2.0,8.1,42,0.00,,,0.00,WUHU216HW,2013-03-08 20:55:00,
2013-03-08 15:00:00,49.1,28.0,30.33,SSE,158,6.3,8.3,44,0.00,,,0.00,WUHU216HW,2013-03-08 21:00:00,
2013-03-08 15:05:00,49.7,28.5,30.33,SSE,158,1.6,8.3,44,0.00,,,0.00,WUHU216HW,2013-03-08 21:05:00,
2013-03-08 15:10:00,50.0,27.7,30.33,South,180,5.8,6.7,42,0.00,,,0.00,WUHU216HW,2013-03-08 21:10:00,
2013-03-08 15:15:00,49.3,28.2,30.33,West,270,1.8,6.7,44,0.00,,,0.00,WUHU216HW,2013-03-08 21:15:00,
2013-03-08 15:20:00,48.6,27.6,30.33,South,180,6.7,6.7,44,0.00,,,0.00,WUHU216HW,2013-03-08 21:20:00,
2013-03-08 15:25:00,48.2,27.2,30.32,South,180,2.7,6.7,44,0.00,,,0.00,WUHU216HW,2013-03-08 21:25:00,
2013-03-08 15:30:00,47.9,27.4,30.32,South,180,3.6,6.3,45,0.00,,,0.00,WUHU216HW,2013-03-08 21:30:00,
2013-03-08 15:35:00,47.9,26.8,30.32,SSW,203,4.0,6.3,44,0.00,,,0.00,WUHU216HW,2013-03-08 21:35:00,
2013-03-08 15:40:00,47.2,27.3,30.31,SSE,158,2.5,6.5,46,0.00,,,0.00,WUHU216HW,2013-03-08 21:40:00,
2013-03-08 15:45:00,46.6,26.8,30.31,South,180,4.0,6.5,46,0.00,,,0.00,WUHU216HW,2013-03-08 21:45:00,
2013-03-08 15:50:00,46.6,27.4,30.31,South,180,5.4,6.3,47,0.00,,,0.00,WUHU216HW,2013-03-08 21:50:00,
2013-03-08 15:55:00,46.3,27.5,30.30,SSE,158,5.1,5.4,48,0.00,,,0.00,WUHU216HW,2013-03-08 21:55:00,
2013-03-08 16:00:00,46.3,27.0,30.30,SE,135,5.6,6.3,47,0.00,,,0.00,WUHU216HW,2013-03-08 22:00:00,
2013-03-08 16:05:00,44.5,25.9,30.30,SSW,203,4.3,6.3,48,0.00,,,0.00,WUHU216HW,2013-03-08 22:05:00,
2013-03-08 16:10:00,42.7,25.8,30.30,South,180,3.1,5.4,51,0.00,,,0.00,WUHU216HW,2013-03-08 22:10:00,
2013-03-08 16:15:00,41.4,25.0,30.30,SSE,158,4.3,5.8,52,0.00,,,0.00,WUHU216HW,2013-03-08 22:15:00,
2013-03-08 16:20:00,40.9,25.4,30.30,SSE,158,2.9,5.8,54,0.00,,,0.00,WUHU216HW,2013-03-08 22:20:00,
2013-03-08 16:25:00,40.1,25.1,30.30,South,180,3.4,5.1,55,0.00,,,0.00,WUHU216HW,2013-03-08 22:25:00,
2013-03-08 16:30:00,40.0,25.0,30.31,SW,225,0.9,5.1,55,0.00,,,0.00,WUHU216HW,2013-03-08 22:30:00,
2013-03-08 16:35:00,38.9,25.3,30.31,SSW,203,3.4,4.0,58,0.00,,,0.00,WUHU216HW,2013-03-08 22:35:00,
2013-03-08 16:40:00,38.3,25.7,30.31,South,180,3.4,5.1,60,0.00,,,0.00,WUHU216HW,2013-03-08 22:40:00,
2013-03-08 16:45:00,38.0,25.8,30.31,SW,225,2.5,5.1,61,0.00,,,0.00,WUHU216HW,2013-03-08 22:45:00,
2013-03-08 16:50:00,37.8,25.6,30.31,South,180,1.8,4.7,61,0.00,,,0.00,WUHU216HW,2013-03-08 22:50:00,
2013-03-08 16:55:00,37.8,25.6,30.31,South,180,0.9,4.7,61,0.00,,,0.00,WUHU216HW,2013-03-08 22:55:00,
2013-03-08 17:00:00,38.0,26.1,30.31,WSW,248,1.3,2.5,62,0.00,,,0.00,WUHU216HW,2013-03-08 23:00:00,
2013-03-08 17:05:00,38.0,26.1,30.31,WSW,248,1.3,1.3,62,0.00,,,0.00,WUHU216HW,2013-03-08 23:05:00,
2013-03-08 18:00:00,34.0,23.4,30.32,SSW,203,1.8,1.8,65,0.00,,,0.00,WUHU216HW,2013-03-09 00:00:00,
2013-03-08 18:05:00,33.7,22.7,30.32,SSE,158,0.9,2.5,64,0.00,,,0.00,WUHU216HW,2013-03-09 00:05:00,
2013-03-08 18:10:00,33.3,22.8,30.32,SSW,203,0.9,2.5,65,0.00,,,0.00,WUHU216HW,2013-03-09 00:10:00,
2013-03-08 18:15:00,32.8,22.2,30.31,SSE,158,0.7,2.2,65,0.00,,,0.00,WUHU216HW,2013-03-09 00:15:00,
2013-03-08 18:20:00,32.4,22.0,30.31,SSE,158,0.7,1.3,65,0.00,,,0.00,WUHU216HW,2013-03-09 00:20:00,
2013-03-08 18:25:00,31.7,21.2,30.31,SSE,158,0.0,0.7,65,0.00,,,0.00,WUHU216HW,2013-03-09 00:25:00,
2013-03-08 18:30:00,31.1,21.1,30.31,SSE,158,0.0,0.2,66,0.00,,,0.00,WUHU216HW,2013-03-09 00:30:00,
2013-03-08 18:35:00,30.8,20.7,30.31,SSE,158,0.0,1.1,66,0.00,,,0.00,WUHU216HW,2013-03-09 00:35:00,
2013-03-08 18:40:00,30.4,20.3,30.31,SE,135,0.0,1.1,66,0.00,,,0.00,WUHU216HW,2013-03-09 00:40:00,
2013-03-08 18:45:00,30.2,20.2,30.31,SE,135,0.0,0.0,66,0.00,,,0.00,WUHU216HW,2013-03-09 00:45:00,
2013-03-08 18:50:00,29.7,20.1,30.31,SE,135,0.0,0.0,67,0.00,,,0.00,WUHU216HW,2013-03-09 00:50:00,
2013-03-08 18:55:00,29.2,19.5,30.31,SSE,158,1.1,1.1,67,0.00,,,0.00,WUHU216HW,2013-03-09 00:55:00,
2013-03-08 19:00:00,29.2,20.3,30.31,SSW,203,1.1,1.6,69,0.00,,,0.00,WUHU216HW,2013-03-09 01:00:00,
2013-03-08 19:02:00,29.2,21.0,30.31,South,180,0.9,0.9,71,0.00,,,0.00,WUHU216HW,2013-03-09 01:02:00,
2013-03-08 19:05:00,29.2,21.0,30.31,South,180,0.9,1.6,71,0.00,,,0.00,WUHU216HW,2013-03-09 01:05:00,
2013-03-08 19:10:00,29.2,21.0,30.31,South,180,0.9,1.1,71,0.00,,,0.00,WUHU216HW,2013-03-09 01:10:00,
2013-03-08 20:00:00,28.6,21.7,30.30,SSE,158,0.4,0.4,75,0.00,,,0.00,WUHU216HW,2013-03-09 02:00:00,
2013-03-08 20:05:00,28.4,21.3,30.29,SSE,158,0.0,0.4,74,0.00,,,0.00,WUHU216HW,2013-03-09 02:05:00,
2013-03-08 20:10:00,27.9,20.7,30.30,SSE,158,0.0,0.4,74,0.00,,,0.00,WUHU216HW,2013-03-09 02:10:00,
2013-03-08 20:15:00,27.5,20.6,30.29,East,90,0.0,0.2,75,0.00,,,0.00,WUHU216HW,2013-03-09 02:15:00,
2013-03-08 20:20:00,27.2,20.3,30.29,East,90,0.0,0.2,75,0.00,,,0.00,WUHU216HW,2013-03-09 02:20:00,
2013-03-08 20:25:00,27.0,20.1,30.29,ENE,68,0.0,0.7,75,0.00,,,0.00,WUHU216HW,2013-03-09 02:25:00,
2013-03-08 20:30:00,26.6,19.7,30.28,ENE,68,0.0,0.7,75,0.00,,,0.00,WUHU216HW,2013-03-09 02:30:00,
2013-03-08 20:35:00,26.3,19.7,30.28,East,90,0.0,0.0,76,0.00,,,0.00,WUHU216HW,2013-03-09 02:35:00,
2013-03-08 20:40:00,26.5,19.9,30.28,SSE,158,1.1,1.1,76,0.00,,,0.00,WUHU216HW,2013-03-09 02:40:00,
2013-03-08 20:45:00,27.0,21.0,30.28,SSE,158,0.4,2.0,78,0.00,,,0.00,WUHU216HW,2013-03-09 02:45:00,
2013-03-08 20:50:00,27.0,21.0,30.28,SSW,203,0.0,2.0,78,0.00,,,0.00,WUHU216HW,2013-03-09 02:50:00,
2013-03-08 20:55:00,27.4,21.3,30.28,SE,135,0.2,1.1,78,0.00,,,0.00,WUHU216HW,2013-03-09 02:55:00,
2013-03-08 21:00:00,27.4,21.3,30.28,SSE,158,0.0,1.1,78,0.00,,,0.00,WUHU216HW,2013-03-09 03:00:00,
2013-03-08 21:05:00,27.2,20.9,30.28,WSW,248,0.7,0.9,77,0.00,,,0.00,WUHU216HW,2013-03-09 03:05:00,
2013-03-08 21:10:00,27.2,21.2,30.28,South,180,0.4,1.1,78,0.00,,,0.00,WUHU216HW,2013-03-09 03:10:00,
2013-03-08 21:15:00,27.0,21.3,30.28,SSW,203,0.9,1.3,79,0.00,,,0.00,WUHU216HW,2013-03-09 03:15:00,
2013-03-08 21:20:00,27.0,21.3,30.28,SSE,158,0.9,1.6,79,0.00,,,0.00,WUHU216HW,2013-03-09 03:20:00,
2013-03-08 21:25:00,27.0,21.3,30.28,South,180,0.0,1.6,79,0.00,,,0.00,WUHU216HW,2013-03-09 03:25:00,
2013-03-08 21:30:00,27.0,21.3,30.28,South,180,0.4,1.6,79,0.00,,,0.00,WUHU216HW,2013-03-09 03:30:00,
2013-03-08 21:35:00,26.8,20.8,30.28,SSE,158,0.7,2.2,78,0.00,,,0.00,WUHU216HW,2013-03-09 03:35:00,
2013-03-08 21:40:00,26.8,21.2,30.28,SSE,158,0.9,2.2,79,0.00,,,0.00,WUHU216HW,2013-03-09 03:40:00,
2013-03-08 21:45:00,26.6,21.0,30.28,South,180,0.4,1.8,79,0.00,,,0.00,WUHU216HW,2013-03-09 03:45:00,
2013-03-08 21:50:00,26.5,20.8,30.27,SSE,158,0.4,1.8,79,0.00,,,0.00,WUHU216HW,2013-03-09 03:50:00,
2013-03-08 21:55:00,26.5,20.8,30.27,SSE,158,1.1,2.7,79,0.00,,,0.00,WUHU216HW,2013-03-09 03:55:00,
2013-03-08 22:00:00,26.3,20.6,30.27,South,180,1.3,2.7,79,0.00,,,0.00,WUHU216HW,2013-03-09 04:00:00,
2013-03-08 22:05:00,26.3,20.6,30.26,South,180,1.1,2.5,79,0.00,,,0.00,WUHU216HW,2013-03-09 04:05:00,
2013-03-08 22:10:00,26.5,21.1,30.26,South,180,1.6,2.5,80,0.00,,,0.00,WUHU216HW,2013-03-09 04:10:00,
2013-03-08 22:15:00,26.3,20.6,30.25,SSE,158,0.9,2.5,79,0.00,,,0.00,WUHU216HW,2013-03-09 04:15:00,
2013-03-08 22:20:00,26.3,20.9,30.25,NE,45,0.7,2.2,80,0.00,,,0.00,WUHU216HW,2013-03-09 04:20:00,
2013-03-08 22:25:00,26.3,20.9,30.25,NE,45,0.7,2.2,80,0.00,,,0.00,WUHU216HW,2013-03-09 04:25:00,
2013-03-08 23:00:00,26.6,21.2,30.24,SSE,158,0.9,0.9,80,0.00,,,0.00,WUHU216HW,2013-03-09 05:00:00,
2013-03-08 23:05:00,26.5,21.1,30.24,South,180,1.1,1.6,80,0.00,,,0.00,WUHU216HW,2013-03-09 05:05:00,
2013-03-08 23:10:00,26.5,21.1,30.24,South,180,1.1,1.6,80,0.00,,,0.00,WUHU216HW,2013-03-09 05:10:00,